Flag for Italy Weather past 2 weeks in Varese, Italy

Now
60 °F

Cool.


Feels Like: 60 °F
Forecast: 55 / 69 °F
Wind: 1 mph from Southwest

Location: Stabio

Current Time: Sep 16, 2014 at 2:58:09 AM

Latest Report: Sep 16, 2014 at 2:00 AM


Visibility: N/A

Pressure: 30.01 "Hg

Humidity: 98%

Dew point: 59 °F

Location of VareseLocation

Historic Weather in Varese — Graph

°F

Varese temperature yesterday

Maximum temperature yesterday: 73 °F (at 5:00 PM)
Minimum temperature yesterday: 55 °F (at 7:00 AM)
Average temperature yesterday: 63 °F

Past Weeks' High & Low Weather Summary

 TemperatureHumidityPressure
High80 °F (Sep 8, 3:00 PM)100% (Sep 10, 3:00 AM)30.05 "Hg (Sep 10, 3:00 AM)
Low49 °F (Sep 3, 6:00 AM)25% (Sep 1, 2:00 PM)29.73 "Hg (Sep 1, 1:00 AM)
Average64 °F78%29.93 "Hg
* Reported Sep 1 1:00 AM — Sep 16 1:00 AM, Varese, Weather by CustomWeather, © 2014

Note: Actual official high and low records may vary slightly from our data, if they occured in-between our weather recording intervals... More about our weather records

Advertising

Varese weather history for previous 24 hours

 ConditionsComfort  
Time TempWeatherWind HumidityBarometerVisibility
1:00 AM
Sep 16
60 °FCool.1 mph98%30.01 "HgN/A
12:00 AM60 °FCool.1 mph98%30.01 "HgN/A
11:00 PM
Sep 15
62 °FCool.1 mph97%30.01 "HgN/A
10:00 PM63 °FMild.1 mph95%29.99 "HgN/A
9:00 PM63 °FMild.No wind93%29.98 "HgN/A
8:00 PM65 °FMild.1 mph90%29.97 "HgN/A
7:00 PM66 °FMild.1 mph86%29.95 "HgN/A
6:00 PM69 °FMild.1 mph83%29.94 "HgN/A
5:00 PM73 °FMild.1 mph58%29.94 "HgN/A
4:00 PM72 °FMild.2 mph63%29.95 "HgN/A
3:00 PM71 °FMild.3 mph60%29.97 "HgN/A
2:00 PM71 °FMild.3 mph65%29.98 "HgN/A
1:00 PM70 °FMild.3 mph66%29.99 "HgN/A
12:00 PM69 °FMild.1 mph67%29.99 "HgN/A
11:00 AM67 °FMild.1 mph76%30.01 "HgN/A
10:00 AM65 °FMild.1 mph81%30.01 "HgN/A
9:00 AM62 °FCool.1 mph87%30.01 "HgN/A
8:00 AM57 °FCool.No wind97%30.02 "HgN/A
7:00 AM55 °FCool.No wind98%30.01 "HgN/A
6:00 AM56 °FCool.1 mph97%30.00 "HgN/A
5:00 AM57 °FCool.1 mph98%30.01 "HgN/A
4:00 AM58 °FCool.1 mph96%30.01 "HgN/A
3:00 AM57 °FCool.No wind98%30.01 "HgN/A
2:00 AM57 °FCool.2 mph97%30.01 "HgN/A
Weather by CustomWeather, © 2014

See weather overviewHow to use our weather pages